Year,Month,Day,Hour,Minute,Value (Times are PST for temperature in C)
2015,06,30,00,00,21.80
2015,06,30,00,01,21.80
2015,06,30,00,02,21.90
2015,06,30,00,03,21.90
2015,06,30,00,04,21.90
2015,06,30,00,05,21.90
2015,06,30,00,06,22.00
2015,06,30,00,07,22.10
2015,06,30,00,08,22.10
2015,06,30,00,09,22.20
2015,06,30,00,10,22.20
2015,06,30,00,11,22.30
2015,06,30,00,12,22.30
2015,06,30,00,13,22.30
2015,06,30,00,14,22.30
2015,06,30,00,15,22.30
2015,06,30,00,16,22.30
2015,06,30,00,17,22.30
2015,06,30,00,18,22.30
2015,06,30,00,19,22.30
2015,06,30,00,20,22.30
2015,06,30,00,21,22.20
2015,06,30,00,22,22.20
2015,06,30,00,23,22.20
2015,06,30,00,24,22.20
2015,06,30,00,25,22.20
2015,06,30,00,26,22.20
2015,06,30,00,27,22.10
2015,06,30,00,28,22.10
2015,06,30,00,29,22.10
2015,06,30,00,30,22.10
2015,06,30,00,31,22.10
2015,06,30,00,32,22.10
2015,06,30,00,33,22.10
2015,06,30,00,34,22.10
2015,06,30,00,35,22.10
2015,06,30,00,36,22.00
2015,06,30,00,37,22.00
2015,06,30,00,38,22.00
2015,06,30,00,39,22.00
2015,06,30,00,40,22.10
2015,06,30,00,41,22.10
2015,06,30,00,42,22.20
2015,06,30,00,43,22.20
2015,06,30,00,44,22.30
2015,06,30,00,45,22.30
2015,06,30,00,46,22.30
2015,06,30,00,47,22.40
2015,06,30,00,48,22.40
2015,06,30,00,49,22.40
2015,06,30,00,50,22.40
2015,06,30,00,51,22.40
2015,06,30,00,52,22.30
2015,06,30,00,53,22.40
2015,06,30,00,54,22.40
2015,06,30,00,55,22.30
2015,06,30,00,56,22.30
2015,06,30,00,57,22.30
2015,06,30,00,58,22.30
2015,06,30,00,59,22.30
2015,06,30,01,00,22.30
2015,06,30,01,01,22.30
2015,06,30,01,02,22.30
2015,06,30,01,03,22.30
2015,06,30,01,04,22.20
2015,06,30,01,05,22.20
2015,06,30,01,06,22.20
2015,06,30,01,07,22.20
2015,06,30,01,08,22.10
2015,06,30,01,09,22.10
2015,06,30,01,10,22.00
2015,06,30,01,11,22.00
2015,06,30,01,12,21.90
2015,06,30,01,13,21.90
2015,06,30,01,14,21.90
2015,06,30,01,15,21.80
2015,06,30,01,16,21.70
2015,06,30,01,17,21.70
2015,06,30,01,18,21.60
2015,06,30,01,19,21.50
2015,06,30,01,20,21.40
2015,06,30,01,21,21.30
2015,06,30,01,22,21.30
2015,06,30,01,23,21.20
2015,06,30,01,24,21.10
2015,06,30,01,25,21.10
2015,06,30,01,26,21.00
2015,06,30,01,27,20.90
2015,06,30,01,28,20.90
2015,06,30,01,29,20.80
2015,06,30,01,30,20.70
2015,06,30,01,31,20.60
2015,06,30,01,32,20.60
2015,06,30,01,33,20.50
2015,06,30,01,34,20.40
2015,06,30,01,35,20.30
2015,06,30,01,36,20.30
2015,06,30,01,37,20.20
2015,06,30,01,38,20.10
2015,06,30,01,39,20.10
2015,06,30,01,40,20.00
2015,06,30,01,41,19.90
2015,06,30,01,42,19.90
2015,06,30,01,43,19.80
2015,06,30,01,44,19.70
2015,06,30,01,45,19.60
2015,06,30,01,46,19.60
2015,06,30,01,47,19.50
2015,06,30,01,48,19.40
2015,06,30,01,49,19.40
2015,06,30,01,50,19.30
2015,06,30,01,51,19.30
2015,06,30,01,52,19.20
2015,06,30,01,53,19.20
2015,06,30,01,54,19.20
2015,06,30,01,55,19.10
2015,06,30,01,56,19.10
2015,06,30,01,57,19.10
2015,06,30,01,58,19.10
2015,06,30,01,59,19.10
2015,06,30,02,00,19.10
2015,06,30,02,01,19.20
2015,06,30,02,02,19.20
2015,06,30,02,03,19.30
2015,06,30,02,04,19.30
2015,06,30,02,05,19.30
2015,06,30,02,06,19.40
2015,06,30,02,07,19.40
2015,06,30,02,08,19.40
2015,06,30,02,09,19.50
2015,06,30,02,10,19.50
2015,06,30,02,11,19.60
2015,06,30,02,12,19.60
2015,06,30,02,13,19.60
2015,06,30,02,14,19.60
2015,06,30,02,15,19.60
2015,06,30,02,16,19.60
2015,06,30,02,17,19.70
2015,06,30,02,18,19.70
2015,06,30,02,19,19.70
2015,06,30,02,20,19.70
2015,06,30,02,21,19.80
2015,06,30,02,22,19.80
2015,06,30,02,23,19.80
2015,06,30,02,24,19.80
2015,06,30,02,25,19.70
2015,06,30,02,26,19.70
2015,06,30,02,27,19.70
2015,06,30,02,28,19.70
2015,06,30,02,29,19.70
2015,06,30,02,30,19.60
2015,06,30,02,31,19.60
2015,06,30,02,32,19.70
2015,06,30,02,33,19.70
2015,06,30,02,34,19.70
2015,06,30,02,35,19.80
2015,06,30,02,36,19.80
2015,06,30,02,37,19.80
2015,06,30,02,38,19.80
2015,06,30,02,39,19.80
2015,06,30,02,40,19.80
2015,06,30,02,41,19.80
2015,06,30,02,42,19.80
2015,06,30,02,43,19.80
2015,06,30,02,44,19.70
2015,06,30,02,45,19.70
2015,06,30,02,46,19.70
2015,06,30,02,47,19.70
2015,06,30,02,48,19.70
2015,06,30,02,49,19.70
2015,06,30,02,50,19.70
2015,06,30,02,51,19.60
2015,06,30,02,52,19.60
2015,06,30,02,53,19.50
2015,06,30,02,54,19.50
2015,06,30,02,55,19.40
2015,06,30,02,56,19.40
2015,06,30,02,57,19.30
2015,06,30,02,58,19.30
2015,06,30,02,59,19.30
2015,06,30,03,00,19.20
2015,06,30,03,01,19.20
2015,06,30,03,02,19.20
2015,06,30,03,03,19.10
2015,06,30,03,04,19.10
2015,06,30,03,05,19.00
2015,06,30,03,06,18.90
2015,06,30,03,07,18.90
2015,06,30,03,08,18.90
2015,06,30,03,09,18.80
2015,06,30,03,10,18.80
2015,06,30,03,11,18.70
2015,06,30,03,12,18.70
2015,06,30,03,13,18.60
2015,06,30,03,14,18.60
2015,06,30,03,15,18.60
2015,06,30,03,16,18.50
2015,06,30,03,17,18.50
2015,06,30,03,18,18.40
2015,06,30,03,19,18.40
2015,06,30,03,20,18.40
2015,06,30,03,21,18.40
2015,06,30,03,22,18.40
2015,06,30,03,23,18.30
2015,06,30,03,24,18.30
2015,06,30,03,25,18.30
2015,06,30,03,26,18.30
2015,06,30,03,27,18.30
2015,06,30,03,28,18.30
2015,06,30,03,29,18.30
2015,06,30,03,30,18.30
2015,06,30,03,31,18.20
2015,06,30,03,32,18.20
2015,06,30,03,33,18.20
2015,06,30,03,34,18.20
2015,06,30,03,35,18.20
2015,06,30,03,36,18.10
2015,06,30,03,37,18.10
2015,06,30,03,38,18.10
2015,06,30,03,39,18.10
2015,06,30,03,40,18.10
2015,06,30,03,41,18.00
2015,06,30,03,42,18.00
2015,06,30,03,43,17.90
2015,06,30,03,44,17.90
2015,06,30,03,45,17.80
2015,06,30,03,46,17.80
2015,06,30,03,47,17.80
2015,06,30,03,48,17.70
2015,06,30,03,49,17.70
2015,06,30,03,50,17.70
2015,06,30,03,51,17.70
2015,06,30,03,52,17.60
2015,06,30,03,53,17.60
2015,06,30,03,54,17.60
2015,06,30,03,55,17.60
2015,06,30,03,56,17.50
2015,06,30,03,57,17.50
2015,06,30,03,58,17.40
2015,06,30,03,59,17.40
2015,06,30,04,00,17.40
2015,06,30,04,01,17.40
2015,06,30,04,02,17.40
2015,06,30,04,03,17.40
2015,06,30,04,04,17.40
2015,06,30,04,05,17.30
2015,06,30,04,06,17.30
2015,06,30,04,07,17.30
2015,06,30,04,08,17.30
2015,06,30,04,09,17.30
2015,06,30,04,10,17.30
2015,06,30,04,11,17.20
2015,06,30,04,12,17.20
2015,06,30,04,13,17.20
2015,06,30,04,14,17.10
2015,06,30,04,15,17.10
2015,06,30,04,16,17.10
2015,06,30,04,17,17.00
2015,06,30,04,18,17.00
2015,06,30,04,19,17.00
2015,06,30,04,20,17.00
2015,06,30,04,21,16.90
2015,06,30,04,22,16.90
2015,06,30,04,23,16.90
2015,06,30,04,24,16.90
2015,06,30,04,25,16.80
2015,06,30,04,26,16.80
2015,06,30,04,27,16.80
2015,06,30,04,28,16.80
2015,06,30,04,29,16.80
2015,06,30,04,30,16.80
2015,06,30,04,31,16.70
2015,06,30,04,32,16.70
2015,06,30,04,33,16.70
2015,06,30,04,34,16.70
2015,06,30,04,35,16.70
2015,06,30,04,36,16.70
2015,06,30,04,37,16.70
2015,06,30,04,38,16.80
2015,06,30,04,39,16.80
2015,06,30,04,40,16.80
2015,06,30,04,41,16.80
2015,06,30,04,42,16.80
2015,06,30,04,43,16.80
2015,06,30,04,44,16.80
2015,06,30,04,45,16.80
2015,06,30,04,46,16.80
2015,06,30,04,47,16.80
2015,06,30,04,48,16.80
2015,06,30,04,49,16.80
2015,06,30,04,50,16.80
2015,06,30,04,51,16.80
2015,06,30,04,52,16.80
2015,06,30,04,53,16.80
2015,06,30,04,54,16.80
2015,06,30,04,55,16.80
2015,06,30,04,56,16.80
2015,06,30,04,57,16.80
2015,06,30,04,58,16.70
2015,06,30,04,59,16.70
2015,06,30,05,00,16.70
2015,06,30,05,01,16.70
2015,06,30,05,02,16.60
2015,06,30,05,03,16.60
2015,06,30,05,04,16.60
2015,06,30,05,05,16.60
2015,06,30,05,06,16.60
2015,06,30,05,07,16.50
2015,06,30,05,08,16.50
2015,06,30,05,09,16.50
2015,06,30,05,10,16.50
2015,06,30,05,11,16.50
2015,06,30,05,12,16.50
2015,06,30,05,13,16.50
2015,06,30,05,14,16.40
2015,06,30,05,15,16.40
2015,06,30,05,16,16.40
2015,06,30,05,17,16.40
2015,06,30,05,18,16.30
2015,06,30,05,19,16.30
2015,06,30,05,20,16.30
2015,06,30,05,21,16.30
2015,06,30,05,22,16.20
2015,06,30,05,23,16.20
2015,06,30,05,24,16.20
2015,06,30,05,25,16.20
2015,06,30,05,26,16.20
2015,06,30,05,27,16.20
2015,06,30,05,28,16.20
2015,06,30,05,29,16.20
2015,06,30,05,30,16.20
2015,06,30,05,31,16.20
2015,06,30,05,32,16.20
2015,06,30,05,33,16.20
2015,06,30,05,34,16.30
2015,06,30,05,35,16.30
2015,06,30,05,36,16.30
2015,06,30,05,37,16.30
2015,06,30,05,38,16.30
2015,06,30,05,39,16.30
2015,06,30,05,40,16.30
2015,06,30,05,41,16.30
2015,06,30,05,42,16.30
2015,06,30,05,43,16.30
2015,06,30,05,44,16.30
2015,06,30,05,45,16.30
2015,06,30,05,46,16.30
2015,06,30,05,47,16.30
2015,06,30,05,48,16.30
2015,06,30,05,49,16.30
2015,06,30,05,50,16.30
2015,06,30,05,51,16.30
2015,06,30,05,52,16.30
2015,06,30,05,53,16.30
2015,06,30,05,54,16.30
2015,06,30,05,55,16.30
2015,06,30,05,56,16.30
2015,06,30,05,57,16.30
2015,06,30,05,58,16.30
2015,06,30,05,59,16.30
2015,06,30,06,00,16.30
2015,06,30,06,01,16.30
2015,06,30,06,02,16.30
2015,06,30,06,03,16.30
2015,06,30,06,04,16.30
2015,06,30,06,05,16.30
2015,06,30,06,06,16.40
2015,06,30,06,07,16.40
2015,06,30,06,08,16.40
2015,06,30,06,09,16.50
2015,06,30,06,10,16.50
2015,06,30,06,11,16.60
2015,06,30,06,12,16.60
2015,06,30,06,13,16.70
2015,06,30,06,14,16.70
2015,06,30,06,15,16.80
2015,06,30,06,16,16.80
2015,06,30,06,17,16.80
2015,06,30,06,18,16.80
2015,06,30,06,19,16.90
2015,06,30,06,20,16.90
2015,06,30,06,21,16.90
2015,06,30,06,22,17.00
2015,06,30,06,23,17.00
2015,06,30,06,24,17.10
2015,06,30,06,25,17.10
2015,06,30,06,26,17.20
2015,06,30,06,27,17.20
2015,06,30,06,28,17.20
2015,06,30,06,29,17.30
2015,06,30,06,30,17.30
2015,06,30,06,31,17.40
2015,06,30,06,32,17.40
2015,06,30,06,33,17.50
2015,06,30,06,34,17.50
2015,06,30,06,35,17.60
2015,06,30,06,36,17.70
2015,06,30,06,37,17.80
2015,06,30,06,38,17.90
2015,06,30,06,39,18.00
2015,06,30,06,40,18.10
2015,06,30,06,41,18.20
2015,06,30,06,42,18.30
2015,06,30,06,43,18.40
2015,06,30,06,44,18.40
2015,06,30,06,45,18.50
2015,06,30,06,46,18.60
2015,06,30,06,47,18.70
2015,06,30,06,48,18.80
2015,06,30,06,49,18.90
2015,06,30,06,50,18.90
2015,06,30,06,51,19.00
2015,06,30,06,52,19.10
2015,06,30,06,53,19.10
2015,06,30,06,54,19.20
2015,06,30,06,55,19.20
2015,06,30,06,56,19.30
2015,06,30,06,57,19.30
2015,06,30,06,58,19.40
2015,06,30,06,59,19.40
2015,06,30,07,00,19.40
2015,06,30,07,01,19.50
2015,06,30,07,02,19.50
2015,06,30,07,03,19.60
2015,06,30,07,04,19.60
2015,06,30,07,05,19.60
2015,06,30,07,06,19.70
2015,06,30,07,07,19.70
2015,06,30,07,08,19.70
2015,06,30,07,09,19.80
2015,06,30,07,10,19.80
2015,06,30,07,11,19.90
2015,06,30,07,12,19.90
2015,06,30,07,13,19.90
2015,06,30,07,14,20.00
2015,06,30,07,15,20.00
2015,06,30,07,16,20.10
2015,06,30,07,17,20.10
2015,06,30,07,18,20.10
2015,06,30,07,19,20.20
2015,06,30,07,20,20.20
2015,06,30,07,21,20.20
2015,06,30,07,22,20.30
2015,06,30,07,23,20.30
2015,06,30,07,24,20.30
2015,06,30,07,25,20.40
2015,06,30,07,26,20.40
2015,06,30,07,27,20.40
2015,06,30,07,28,20.40
2015,06,30,07,29,20.40
2015,06,30,07,30,20.40
2015,06,30,07,31,20.40
2015,06,30,07,32,20.40
2015,06,30,07,33,20.40
2015,06,30,07,34,20.40
2015,06,30,07,35,20.40
2015,06,30,07,36,20.40
2015,06,30,07,37,20.40
2015,06,30,07,38,20.40
2015,06,30,07,39,20.40
2015,06,30,07,40,20.50
2015,06,30,07,41,20.50
2015,06,30,07,42,20.60
2015,06,30,07,43,20.60
2015,06,30,07,44,20.70
2015,06,30,07,45,20.70
2015,06,30,07,46,20.70
2015,06,30,07,47,20.70
2015,06,30,07,48,20.70
2015,06,30,07,49,20.80
2015,06,30,07,50,20.80
2015,06,30,07,51,20.80
2015,06,30,07,52,20.80
2015,06,30,07,53,20.70
2015,06,30,07,54,20.70
2015,06,30,07,55,20.60
2015,06,30,07,56,20.60
2015,06,30,07,57,20.60
2015,06,30,07,58,20.50
2015,06,30,07,59,20.50
2015,06,30,08,00,20.50
2015,06,30,08,01,20.40
2015,06,30,08,02,20.40
2015,06,30,08,03,20.40
2015,06,30,08,04,20.40
2015,06,30,08,05,20.40
2015,06,30,08,06,20.40
2015,06,30,08,07,20.40
2015,06,30,08,08,20.40
2015,06,30,08,09,20.40
2015,06,30,08,10,20.40
2015,06,30,08,11,20.40
2015,06,30,08,12,20.40
2015,06,30,08,13,20.40
2015,06,30,08,14,20.40
2015,06,30,08,15,20.50
2015,06,30,08,16,20.60
2015,06,30,08,17,20.60
2015,06,30,08,18,20.70
2015,06,30,08,19,20.70
2015,06,30,08,20,20.80
2015,06,30,08,21,20.80
2015,06,30,08,22,20.90
2015,06,30,08,23,20.90
2015,06,30,08,24,20.90
2015,06,30,08,25,20.90
2015,06,30,08,26,20.90
2015,06,30,08,27,20.90
2015,06,30,08,28,20.90
2015,06,30,08,29,20.90
2015,06,30,08,30,20.90
2015,06,30,08,31,21.00
2015,06,30,08,32,21.00
2015,06,30,08,33,21.00
2015,06,30,08,34,21.00
2015,06,30,08,35,21.00
2015,06,30,08,36,21.00
2015,06,30,08,37,21.00
2015,06,30,08,38,21.00
2015,06,30,08,39,21.00
2015,06,30,08,40,21.10
2015,06,30,08,41,21.10
2015,06,30,08,42,21.10
2015,06,30,08,43,21.20
2015,06,30,08,44,21.20
2015,06,30,08,45,21.20
2015,06,30,08,46,21.20
2015,06,30,08,47,21.20
2015,06,30,08,48,21.20
2015,06,30,08,49,21.10
2015,06,30,08,50,21.10
2015,06,30,08,51,21.10
2015,06,30,08,52,21.10
2015,06,30,08,53,21.20
2015,06,30,08,54,21.20
2015,06,30,08,55,21.20
2015,06,30,08,56,21.30
2015,06,30,08,57,21.30
2015,06,30,08,58,21.30
2015,06,30,08,59,21.30
2015,06,30,09,00,21.20
2015,06,30,09,01,21.20
2015,06,30,09,02,21.20
2015,06,30,09,03,21.20
2015,06,30,09,04,21.20
2015,06,30,09,05,21.20
2015,06,30,09,06,21.30
2015,06,30,09,07,21.30
2015,06,30,09,08,21.40
2015,06,30,09,09,21.40
2015,06,30,09,10,21.40
2015,06,30,09,11,21.50
2015,06,30,09,12,21.50
2015,06,30,09,13,21.50
2015,06,30,09,14,21.50
2015,06,30,09,15,21.50
2015,06,30,09,16,21.50
2015,06,30,09,17,21.50
2015,06,30,09,18,21.50
2015,06,30,09,19,21.50
2015,06,30,09,20,21.50
2015,06,30,09,21,21.50
2015,06,30,09,22,21.50
2015,06,30,09,23,21.50
2015,06,30,09,24,21.50
2015,06,30,09,25,21.40
2015,06,30,09,26,21.40
2015,06,30,09,27,21.40
2015,06,30,09,28,21.50
2015,06,30,09,29,21.50
2015,06,30,09,30,21.50
2015,06,30,09,31,21.50
2015,06,30,09,32,21.60
2015,06,30,09,33,21.60
2015,06,30,09,34,21.70
2015,06,30,09,35,21.70
2015,06,30,09,36,21.80
2015,06,30,09,37,21.80
2015,06,30,09,38,21.80
2015,06,30,09,39,21.90
2015,06,30,09,40,21.90
2015,06,30,09,41,21.90
2015,06,30,09,42,21.90
2015,06,30,09,43,21.90
2015,06,30,09,44,21.90
2015,06,30,09,45,21.90
2015,06,30,09,46,21.80
2015,06,30,09,47,21.80
2015,06,30,09,48,21.80
2015,06,30,09,49,21.80
2015,06,30,09,50,21.80
2015,06,30,09,51,21.80
2015,06,30,09,52,21.90
2015,06,30,09,53,21.90
2015,06,30,09,54,21.90
2015,06,30,09,55,21.90
2015,06,30,09,56,21.90
2015,06,30,09,57,22.00
2015,06,30,09,58,22.00
2015,06,30,09,59,22.10
2015,06,30,10,00,22.10
2015,06,30,10,01,22.10
2015,06,30,10,02,22.10
2015,06,30,10,03,22.10
2015,06,30,10,04,22.10
2015,06,30,10,05,22.10
2015,06,30,10,06,22.10
2015,06,30,10,07,22.10
2015,06,30,10,08,22.10
2015,06,30,10,09,22.00
2015,06,30,10,10,21.90
2015,06,30,10,11,21.90
2015,06,30,10,12,21.80
2015,06,30,10,13,21.80
2015,06,30,10,14,21.80
2015,06,30,10,15,21.80
2015,06,30,10,16,21.80
2015,06,30,10,17,21.80
2015,06,30,10,18,21.80
2015,06,30,10,19,21.80
2015,06,30,10,20,21.90
2015,06,30,10,21,22.00
2015,06,30,10,22,22.10
2015,06,30,10,23,22.20
2015,06,30,10,24,22.20
2015,06,30,10,25,22.30
2015,06,30,10,26,22.20
2015,06,30,10,27,22.20
2015,06,30,10,28,22.20
2015,06,30,10,29,22.20
2015,06,30,10,30,22.20
2015,06,30,10,31,22.20
2015,06,30,10,32,22.10
2015,06,30,10,33,22.10
2015,06,30,10,34,22.10
2015,06,30,10,35,22.10
2015,06,30,10,36,22.10
2015,06,30,10,37,22.20
2015,06,30,10,38,22.20
2015,06,30,10,39,22.20
2015,06,30,10,40,22.20
2015,06,30,10,41,22.20
2015,06,30,10,42,22.30
2015,06,30,10,43,22.30
2015,06,30,10,44,22.30
2015,06,30,10,45,22.30
2015,06,30,10,46,22.20
2015,06,30,10,47,22.20
2015,06,30,10,48,22.20
2015,06,30,10,49,22.30
2015,06,30,10,50,22.30
2015,06,30,10,51,22.30
2015,06,30,10,52,22.30
2015,06,30,10,53,22.30
2015,06,30,10,54,22.40
2015,06,30,10,55,22.40
2015,06,30,10,56,22.50
2015,06,30,10,57,22.50
2015,06,30,10,58,22.60
2015,06,30,10,59,22.70
2015,06,30,11,00,22.70
2015,06,30,11,01,22.80
2015,06,30,11,02,22.80
2015,06,30,11,03,22.90
2015,06,30,11,04,22.90
2015,06,30,11,05,23.00
2015,06,30,11,06,23.10
2015,06,30,11,07,23.10
2015,06,30,11,08,23.10
2015,06,30,11,09,23.10
2015,06,30,11,10,23.10
2015,06,30,11,11,23.10
2015,06,30,11,12,23.00
2015,06,30,11,13,23.00
2015,06,30,11,14,23.00
2015,06,30,11,15,22.90
2015,06,30,11,16,22.90
2015,06,30,11,17,22.90
2015,06,30,11,18,23.00
2015,06,30,11,19,23.00
2015,06,30,11,20,23.00
2015,06,30,11,21,23.00
2015,06,30,11,22,23.00
2015,06,30,11,23,23.00
2015,06,30,11,24,22.90
2015,06,30,11,25,22.80
2015,06,30,11,26,22.80
2015,06,30,11,27,22.80
2015,06,30,11,28,22.80
2015,06,30,11,29,22.90
2015,06,30,11,30,22.90
2015,06,30,11,31,22.90
2015,06,30,11,32,22.90
2015,06,30,11,33,22.80
2015,06,30,11,34,22.80
2015,06,30,11,35,22.90
2015,06,30,11,36,22.90
2015,06,30,11,37,23.00
2015,06,30,11,38,23.00
2015,06,30,11,39,23.00
2015,06,30,11,40,23.10
2015,06,30,11,41,23.10
2015,06,30,11,42,23.10
2015,06,30,11,43,23.20
2015,06,30,11,44,23.20
2015,06,30,11,45,23.30
2015,06,30,11,46,23.30
2015,06,30,11,47,23.40
2015,06,30,11,48,23.50
2015,06,30,11,49,23.60
2015,06,30,11,50,23.70
2015,06,30,11,51,23.60
2015,06,30,11,52,23.40
2015,06,30,11,53,23.30
2015,06,30,11,54,23.20
2015,06,30,11,55,23.10
2015,06,30,11,56,23.00
2015,06,30,11,57,22.90
2015,06,30,11,58,22.90
2015,06,30,11,59,22.90
2015,06,30,12,00,22.90
2015,06,30,12,01,23.00
2015,06,30,12,02,23.00
2015,06,30,12,03,23.10
2015,06,30,12,04,23.10
2015,06,30,12,05,23.20
2015,06,30,12,06,23.20
2015,06,30,12,07,23.30
2015,06,30,12,08,23.30
2015,06,30,12,09,23.30
2015,06,30,12,10,23.30
2015,06,30,12,11,23.30
2015,06,30,12,12,23.30
2015,06,30,12,13,23.30
2015,06,30,12,14,23.40
2015,06,30,12,15,23.50
2015,06,30,12,16,23.50
2015,06,30,12,17,23.50
2015,06,30,12,18,23.50
2015,06,30,12,19,23.50
2015,06,30,12,20,23.60
2015,06,30,12,21,23.60
2015,06,30,12,22,23.60
2015,06,30,12,23,23.60
2015,06,30,12,24,23.60
2015,06,30,12,25,23.70
2015,06,30,12,26,23.80
2015,06,30,12,27,23.80
2015,06,30,12,28,23.90
2015,06,30,12,29,23.90
2015,06,30,12,30,23.90
2015,06,30,12,31,23.90
2015,06,30,12,32,24.00
2015,06,30,12,33,24.00
2015,06,30,12,34,24.10
2015,06,30,12,35,24.00
2015,06,30,12,36,24.00
2015,06,30,12,37,23.90
2015,06,30,12,38,23.90
2015,06,30,12,39,23.90
2015,06,30,12,40,23.80
2015,06,30,12,41,23.90
2015,06,30,12,42,23.90
2015,06,30,12,43,23.90
2015,06,30,12,44,23.90
2015,06,30,12,45,24.00
2015,06,30,12,46,24.00
2015,06,30,12,47,24.10
2015,06,30,12,48,24.20
2015,06,30,12,49,24.20
2015,06,30,12,50,24.30
2015,06,30,12,51,24.40
2015,06,30,12,52,24.50
2015,06,30,12,53,24.60
2015,06,30,12,54,24.60
2015,06,30,12,55,24.50
2015,06,30,12,56,24.40
2015,06,30,12,57,24.40
2015,06,30,12,58,24.40
2015,06,30,12,59,24.40
2015,06,30,13,00,24.40
2015,06,30,13,01,24.40
2015,06,30,13,02,24.40
2015,06,30,13,03,24.50
2015,06,30,13,04,24.60
2015,06,30,13,05,24.60
2015,06,30,13,06,24.50
2015,06,30,13,07,24.40
2015,06,30,13,08,24.50
2015,06,30,13,09,24.60
2015,06,30,13,10,24.70
2015,06,30,13,11,24.70
2015,06,30,13,12,24.80
2015,06,30,13,13,24.80
2015,06,30,13,14,24.80
2015,06,30,13,15,24.80
2015,06,30,13,16,24.90
2015,06,30,13,17,24.90
2015,06,30,13,18,25.00
2015,06,30,13,19,25.10
2015,06,30,13,20,25.10
2015,06,30,13,21,25.20
2015,06,30,13,22,25.20
2015,06,30,13,23,25.10
2015,06,30,13,24,25.10
2015,06,30,13,25,24.90
2015,06,30,13,26,24.90
2015,06,30,13,27,24.80
2015,06,30,13,28,24.80
2015,06,30,13,29,24.70
2015,06,30,13,30,24.70
2015,06,30,13,31,24.70
2015,06,30,13,32,24.80
2015,06,30,13,33,24.90
2015,06,30,13,34,24.90
2015,06,30,13,35,25.00
2015,06,30,13,36,25.00
2015,06,30,13,37,25.00
2015,06,30,13,38,25.00
2015,06,30,13,39,25.00
2015,06,30,13,40,25.00
2015,06,30,13,41,24.90
2015,06,30,13,42,24.90
2015,06,30,13,43,24.90
2015,06,30,13,44,24.90
2015,06,30,13,45,24.90
2015,06,30,13,46,24.80
2015,06,30,13,47,24.70
2015,06,30,13,48,24.70
2015,06,30,13,49,24.70
2015,06,30,13,50,24.70
2015,06,30,13,51,24.70
2015,06,30,13,52,24.70
2015,06,30,13,53,24.80
2015,06,30,13,54,24.80
2015,06,30,13,55,24.80
2015,06,30,13,56,24.80
2015,06,30,13,57,24.80
2015,06,30,13,58,24.90
2015,06,30,13,59,25.00
2015,06,30,14,00,25.20
2015,06,30,14,01,25.30
2015,06,30,14,02,25.50
2015,06,30,14,03,25.50
2015,06,30,14,04,25.60
2015,06,30,14,05,25.60
2015,06,30,14,06,25.70
2015,06,30,14,07,25.70
2015,06,30,14,08,25.70
2015,06,30,14,09,25.70
2015,06,30,14,10,25.70
2015,06,30,14,11,25.60
2015,06,30,14,12,25.60
2015,06,30,14,13,25.60
2015,06,30,14,14,25.60
2015,06,30,14,15,25.50
2015,06,30,14,16,25.40
2015,06,30,14,17,25.30
2015,06,30,14,18,25.30
2015,06,30,14,19,25.30
2015,06,30,14,20,25.30
2015,06,30,14,21,25.30
2015,06,30,14,22,25.30
2015,06,30,14,23,25.30
2015,06,30,14,24,25.30
2015,06,30,14,25,25.30
2015,06,30,14,26,25.30
2015,06,30,14,27,25.40
2015,06,30,14,28,25.50
2015,06,30,14,29,25.50
2015,06,30,14,30,25.50
2015,06,30,14,31,25.50
2015,06,30,14,32,25.50
2015,06,30,14,33,25.50
2015,06,30,14,34,25.40
2015,06,30,14,35,25.30
2015,06,30,14,36,25.20
2015,06,30,14,37,25.30
2015,06,30,14,38,25.40
2015,06,30,14,39,25.40
2015,06,30,14,40,25.50
2015,06,30,14,41,25.50
2015,06,30,14,42,25.60
2015,06,30,14,43,25.60
2015,06,30,14,44,25.60
2015,06,30,14,45,25.50
2015,06,30,14,46,25.30
2015,06,30,14,47,25.20
2015,06,30,14,48,25.20
2015,06,30,14,49,25.10
2015,06,30,14,50,25.10
2015,06,30,14,51,25.10
2015,06,30,14,52,25.10
2015,06,30,14,53,25.10
2015,06,30,14,54,25.10
2015,06,30,14,55,25.00
2015,06,30,14,56,25.00
2015,06,30,14,57,25.10
2015,06,30,14,58,25.10
2015,06,30,14,59,25.20
2015,06,30,15,00,25.20
2015,06,30,15,01,25.20
2015,06,30,15,02,25.30
2015,06,30,15,03,25.30
2015,06,30,15,04,25.40
2015,06,30,15,05,25.50
2015,06,30,15,06,25.50
2015,06,30,15,07,25.50
2015,06,30,15,08,25.50
2015,06,30,15,09,25.50
2015,06,30,15,10,25.50
2015,06,30,15,11,25.50
2015,06,30,15,12,25.40
2015,06,30,15,13,25.40
2015,06,30,15,14,25.50
2015,06,30,15,15,25.60
2015,06,30,15,16,25.70
2015,06,30,15,17,25.80
2015,06,30,15,18,25.80
2015,06,30,15,19,25.80
2015,06,30,15,20,25.80
2015,06,30,15,21,25.80
2015,06,30,15,22,25.70
2015,06,30,15,23,25.70
2015,06,30,15,24,25.70
2015,06,30,15,25,25.70
2015,06,30,15,26,25.70
2015,06,30,15,27,25.80
2015,06,30,15,28,25.90
2015,06,30,15,29,26.00
2015,06,30,15,30,26.10
2015,06,30,15,31,26.10
2015,06,30,15,32,26.10
2015,06,30,15,33,26.20
2015,06,30,15,34,26.20
2015,06,30,15,35,26.20
2015,06,30,15,36,26.20
2015,06,30,15,37,26.20
2015,06,30,15,38,26.10
2015,06,30,15,39,26.10
2015,06,30,15,40,26.10
2015,06,30,15,41,26.10
2015,06,30,15,42,26.10
2015,06,30,15,43,26.20
2015,06,30,15,44,26.20
2015,06,30,15,45,26.20
2015,06,30,15,46,26.20
2015,06,30,15,47,26.20
2015,06,30,15,48,26.20
2015,06,30,15,49,26.30
2015,06,30,15,50,26.30
2015,06,30,15,51,26.40
2015,06,30,15,52,26.40
2015,06,30,15,53,26.40
2015,06,30,15,54,26.50
2015,06,30,15,55,26.50
2015,06,30,15,56,26.60
2015,06,30,15,57,26.70
2015,06,30,15,58,26.70
2015,06,30,15,59,26.80
2015,06,30,16,00,26.80
2015,06,30,16,01,26.80
2015,06,30,16,02,26.80
2015,06,30,16,03,26.80
2015,06,30,16,04,26.80
2015,06,30,16,05,26.70
2015,06,30,16,06,26.70
2015,06,30,16,07,26.80
2015,06,30,16,08,26.80
2015,06,30,16,09,26.80
2015,06,30,16,10,26.80
2015,06,30,16,11,26.80
2015,06,30,16,12,26.70
2015,06,30,16,13,26.70
2015,06,30,16,14,26.70
2015,06,30,16,15,26.70
2015,06,30,16,16,26.70
2015,06,30,16,17,26.70
2015,06,30,16,18,26.80
2015,06,30,16,19,26.80
2015,06,30,16,20,26.80
2015,06,30,16,21,26.80
2015,06,30,16,22,26.80
2015,06,30,16,23,26.80
2015,06,30,16,24,26.80
2015,06,30,16,25,26.70
2015,06,30,16,26,26.60
2015,06,30,16,27,26.60
2015,06,30,16,28,26.70
2015,06,30,16,29,26.60
2015,06,30,16,30,26.60
2015,06,30,16,31,26.60
2015,06,30,16,32,26.50
2015,06,30,16,33,26.40
2015,06,30,16,34,26.40
2015,06,30,16,35,26.40
2015,06,30,16,36,26.30
2015,06,30,16,37,26.30
2015,06,30,16,38,26.30
2015,06,30,16,39,26.30
2015,06,30,16,40,26.30
2015,06,30,16,41,26.30
2015,06,30,16,42,26.30
2015,06,30,16,43,26.30
2015,06,30,16,44,26.20
2015,06,30,16,45,26.30
2015,06,30,16,46,26.30
2015,06,30,16,47,26.40
2015,06,30,16,48,26.50
2015,06,30,16,49,26.50
2015,06,30,16,50,26.50
2015,06,30,16,51,26.50
2015,06,30,16,52,26.40
2015,06,30,16,53,26.50
2015,06,30,16,54,26.50
2015,06,30,16,55,26.60
2015,06,30,16,56,26.70
2015,06,30,16,57,26.70
2015,06,30,16,58,26.60
2015,06,30,16,59,26.50
2015,06,30,17,00,26.50
2015,06,30,17,01,26.40
2015,06,30,17,02,26.40
2015,06,30,17,03,26.40
2015,06,30,17,04,26.40
2015,06,30,17,05,26.50
2015,06,30,17,06,26.50
2015,06,30,17,07,26.60
2015,06,30,17,08,26.70
2015,06,30,17,09,26.70
2015,06,30,17,10,26.80
2015,06,30,17,11,26.80
2015,06,30,17,12,26.80
2015,06,30,17,13,26.80
2015,06,30,17,14,26.70
2015,06,30,17,15,26.60
2015,06,30,17,16,26.60
2015,06,30,17,17,26.60
2015,06,30,17,18,26.50
2015,06,30,17,19,26.50